[[{"header":{"parameterUnit":"m.s-1","parameterCategory":1,"la1":30.2992,"la2":30.254,"lo1":-89.0895,"lo2":-89.0443,"dy":0.0025,"dx":0.0025,"nx":19,"ny":19,"refTime":"2026-04-03T21:00:00:Z","depth":0,"parameterNumber":2,"parameterNumberName":"U-component_of_WINDS"},"data":[0,0,0,-1.557,-1.557,-1.5551,-1.5551,-1.5534,-1.5534,0,0,0,0,0,0,0,0,0,0,0,-1.5582,-1.5582,-1.557,-1.557,-1.5551,-1.555,-1.5534,-1.5534,0,0,0,0,0,0,0,0,0,0,0,-1.5582,-1.5582,-1.5582,-1.557,-1.5551,-1.555,-1.5534,-1.5545,0,0,0,0,0,0,0,0,0,0,-1.5563,-1.5579,-1.5582,-1.5582,-1.557,-1.5551,-1.555,-1.5546,-1.5545,-1.5546,0,-1.555,0,-1.5541,-1.5533,-1.5533,0,0,0,-1.5566,-1.558,-1.557,-1.5582,-1.557,-1.5551,-1.5558,-1.5545,-1.5544,-1.5545,-1.5549,-1.5548,-1.5541,-1.5533,-1.5533,-1.5558,-1.5558,0,0,-1.5567,-1.5581,-1.5571,-1.5569,-1.5573,-1.5559,-1.5558,-1.5544,-1.555,-1.5549,-1.5548,-1.5541,-1.5533,-1.5533,-1.5558,-1.5558,0,0,0,-1.5573,-1.5582,-1.5572,-1.557,-1.5566,-1.5558,-1.5557,-1.555,-1.5546,-1.5548,-1.5541,-1.5533,-1.5533,-1.5557,-1.5558,-1.5588,0,0,0,-1.5573,-1.5585,-1.5573,-1.5581,-1.5566,-1.5558,-1.5564,-1.5547,-1.5545,-1.5541,-1.5533,-1.5533,-1.5557,-1.5558,-1.5586,-1.5599,0,0,0,-1.5581,-1.5586,-1.5585,-1.5582,-1.5574,-1.5558,-1.5553,-1.5546,-1.5541,-1.5533,-1.5533,-1.5557,-1.5558,-1.5585,-1.5597,-1.561,0,0,0,-1.5593,-1.5612,-1.5586,-1.5604,-1.5574,-1.5577,-1.5552,-1.5553,-1.555,-1.5533,-1.5557,-1.5558,-1.5584,-1.5595,-1.5609,-1.5623,-1.5631,0,0,-1.5624,-1.5616,-1.5625,-1.5602,-1.5613,-1.5579,-1.5594,-1.5577,-1.5563,-1.556,-1.5561,-1.5587,-1.5597,-1.561,-1.567,-1.5676,0,0,0,-1.564,-1.5647,-1.5647,-1.5645,-1.5633,-1.5624,-1.5604,-1.5598,-1.5595,-1.5565,-1.5595,-1.56,-1.5607,-1.5614,-1.5619,-1.5624,-1.5562,-1.5561,-1.5561,-1.5703,-1.5685,-1.57,-1.568,-1.5678,-1.5658,-1.5654,-1.5642,-1.5624,-1.5632,-1.563,-1.5669,-1.5677,-1.5681,-1.5687,-1.5637,-1.5637,-1.5637,-1.5637,-1.5747,-1.5754,-1.573,-1.5735,-1.5716,-1.572,-1.5701,-1.5688,-1.5689,-1.5668,-1.5674,-1.5652,-1.5689,-1.5692,-1.5639,-1.5639,-1.5639,-1.5639,-1.5639,-1.5786,-1.5786,-1.5779,-1.5775,-1.5774,-1.5753,-1.5755,-1.5737,-1.572,-1.5725,-1.5722,-1.5722,-1.5719,-1.5725,-1.5725,-1.5726,-1.5726,-1.5726,-1.5726,-1.583,-1.5821,-1.5825,-1.5815,-1.5812,-1.5805,-1.5785,-1.5781,-1.5772,-1.5759,-1.5759,-1.574,-1.5696,-1.5685,-1.5728,-1.5727,-1.5727,-1.5727,-1.5727,-1.588,-1.5866,-1.5872,-1.5869,-1.5856,-1.5856,-1.5834,-1.5827,-1.5821,-1.5823,-1.5803,-1.5774,-1.5764,-1.5759,-1.575,-1.5807,-1.5807,-1.5807,-1.5807,-1.5913,-1.5906,-1.5909,-1.5905,-1.5899,-1.588,-1.5888,-1.5873,-1.5855,-1.585,-1.5839,-1.5826,-1.5822,-1.5814,-1.5809,-1.58,-1.5868,-1.5868,-1.5868,-1.5942,-1.5935,-1.5945,-1.5928,-1.5916,-1.5907,-1.5914,-1.591,-1.5886,-1.587,-1.5846,-1.5843,-1.5821,-1.5815,-1.5798,-1.579,-1.5773,0,0]},{"header":{"parameterUnit":"m.s-1","parameterCategory":1,"la1":30.2992,"la2":30.254,"lo1":-89.0895,"lo2":-89.0443,"dy":0.0025,"dx":0.0025,"nx":19,"ny":19,"refTime":"2026-04-03T21:00:00:Z","depth":0,"parameterNumber":3,"parameterNumberName":"V-component_of_WINDS"},"data":[0,0,0,2.0111,2.0112,2.017,2.0171,2.0249,2.025,0,0,0,0,0,0,0,0,0,0,0,2.0097,2.0098,2.0111,2.0112,2.017,2.0171,2.0249,2.025,0,0,0,0,0,0,0,0,0,0,0,2.0097,2.0098,2.0098,2.0113,2.017,2.0171,2.0249,2.0203,0,0,0,0,0,0,0,0,0,0,2.0146,2.0137,2.0097,2.0098,2.0113,2.017,2.0171,2.0201,2.0206,2.0225,0,2.0243,0,2.0248,2.0256,2.0256,0,0,0,2.011,2.0133,2.0145,2.0099,2.0114,2.017,2.0144,2.0204,2.021,2.0232,2.0244,2.0247,2.0249,2.0256,2.0257,2.0376,2.0377,0,0,2.0107,2.0109,2.0141,2.0149,2.0141,2.0142,2.0145,2.0207,2.0221,2.0245,2.0249,2.0251,2.0257,2.0257,2.0375,2.0376,0,0,0,2.0099,2.0107,2.0118,2.0146,2.0156,2.0143,2.0148,2.0218,2.0221,2.025,2.0252,2.0257,2.0258,2.0375,2.0376,2.0413,0,0,0,2.0097,2.0103,2.0117,2.0119,2.0155,2.0188,2.0157,2.0217,2.0224,2.0251,2.0257,2.0259,2.0374,2.0375,2.041,2.043,0,0,0,2.0092,2.0102,2.0112,2.0119,2.0144,2.0187,2.0194,2.0219,2.0225,2.0256,2.0259,2.0373,2.0375,2.0408,2.0426,2.0463,0,0,0,2.0087,2.0143,2.0112,2.0175,2.0144,2.021,2.0193,2.0242,2.0273,2.0258,2.0374,2.0376,2.0407,2.0424,2.0461,2.0496,2.051,0,0,2.0159,2.0152,2.0188,2.0163,2.0235,2.02,2.0278,2.0303,2.0303,2.0352,2.0354,2.0411,2.0426,2.0463,2.0589,2.0601,0,0,0,2.0212,2.0238,2.0257,2.0287,2.0308,2.0328,2.0341,2.035,2.0391,2.0329,2.0434,2.0443,2.0464,2.0481,2.0491,2.0509,2.0383,2.0383,2.0383,2.0317,2.0315,2.0376,2.0381,2.041,2.0423,2.0446,2.0461,2.045,2.0475,2.0489,2.0566,2.0586,2.0593,2.0613,2.0507,2.0507,2.0507,2.0507,2.0422,2.046,2.0444,2.0498,2.0495,2.054,2.0555,2.0545,2.0587,2.0555,2.0574,2.054,2.0606,2.0623,2.051,2.0509,2.0509,2.0509,2.0509,2.0491,2.0509,2.052,2.0564,2.0597,2.06,2.0641,2.0636,2.0632,2.0651,2.0667,2.0666,2.0666,2.0658,2.0659,2.0659,2.0659,2.0659,2.066,2.056,2.0571,2.0606,2.0634,2.0653,2.0677,2.0691,2.071,2.0729,2.0722,2.0722,2.0709,2.0613,2.0589,2.0664,2.0663,2.0662,2.0662,2.0662,2.0669,2.0644,2.0698,2.0718,2.075,2.0784,2.0778,2.0816,2.083,2.0851,2.0833,2.0762,2.0754,2.0746,2.0727,2.0833,2.0833,2.0833,2.0833,2.0729,2.0724,2.078,2.0811,2.084,2.084,2.0902,2.0914,2.0922,2.0931,2.0915,2.0888,2.088,2.0877,2.0866,2.0848,2.0983,2.0983,2.0983,2.0796,2.0795,2.0849,2.0857,2.0882,2.0903,2.0962,2.0998,2.1001,2.0989,2.0938,2.0932,2.0889,2.0875,2.0862,2.0845,2.0812,0,0]}]]